Flag for Germany Weather past 2 weeks in Neuruppin, Brandenburg, Germany

Now
67 °F

Overcast.


Feels Like: 67 °F
Forecast: 61 / 69 °F
Wind: 2 mph from North

Location: Neuruppin

Current Time: Jul 8, 2015 at 12:49:46 AM

Latest Report: Jul 7, 2015 at 10:00 PM


Visibility: 6 mi

Pressure: 29.67 "Hg

Humidity: 92%

Dew point: 64 °F

Location of NeuruppinLocation

Historic Weather in Neuruppin — Graph

°F

Neuruppin temperature yesterday

Maximum temperature yesterday: 83 °F (at 5:00 PM)
Minimum temperature yesterday: 55 °F (at 4:00 AM)
Average temperature yesterday: 70 °F

Past Weeks' High & Low Weather Summary

 TemperatureHumidityPressure
High93 °F (Jul 4, 4:00 PM)98% (Jun 23, 2:00 AM)30.29 "Hg (Jun 23, 2:00 AM)
Low50 °F (Jun 24, 2:00 AM)36% (Jul 2, 2:00 PM)29.62 "Hg (Jun 23, 3:00 AM)
Average67 °F69%30.08 "Hg
* Reported Jun 22 10:00 PM — Jul 7 10:00 PM, Neuruppin, Weather by CustomWeather, © 2015

Note: Actual official high and low records may vary slightly from our data, if they occured in-between our weather recording intervals... More about our weather records

Advertising

Neuruppin weather history for previous 24 hours

 ConditionsComfort  
Time TempWeatherWind HumidityBarometerVisibility
10:00 PM
Tue, Jul 7
67 °FOvercast.2 mph92%29.67 "Hg6 mi
9:00 PM73 °FOvercast.6 mph66%29.74 "Hg6 mi
8:00 PM78 °FOvercast.No wind59%29.67 "Hg6 mi
7:00 PM80 °FOvercast.2 mph55%29.69 "Hg6 mi
6:00 PM83 °FPassing clouds.3 mph47%29.73 "Hg6 mi
5:00 PM83 °FSunny.6 mph37%29.77 "Hg6 mi
4:00 PM82 °FSunny.7 mph45%29.80 "Hg6 mi
3:00 PM81 °FSunny.3 mph44%29.83 "Hg6 mi
2:00 PM80 °FSunny.5 mph43%29.87 "Hg6 mi
1:00 PM78 °FSunny.5 mph47%29.90 "Hg6 mi
12:00 PM77 °FSunny.3 mph48%29.93 "Hg6 mi
10:00 AM72 °FSunny.3 mph58%29.97 "Hg6 mi
9:00 AM69 °FSunny.1 mph67%30.00 "Hg6 mi
8:00 AM64 °FSunny.No wind78%30.01 "Hg6 mi
7:00 AM59 °FSunny.1 mph84%30.02 "Hg6 mi
6:00 AM56 °FSunny.1 mph87%30.03 "Hg6 mi
4:00 AM55 °FClear.1 mph88%30.05 "Hg6 mi
3:00 AM57 °FClear.1 mph82%30.05 "Hg6 mi
2:00 AM59 °FClear.1 mph77%30.05 "Hg6 mi
1:00 AM61 °FClear.1 mph71%30.07 "Hg6 mi
12:00 AM61 °FClear.1 mph80%30.07 "Hg6 mi
Weather by CustomWeather, © 2015

See weather overviewHow to use our weather pages